Regional Weather Roundup
Issued by NWS

Home | Current Version | Previous Version | Graphics & Text | Print | Product List | Glossary On
Versions: 1 2 3 4 5 6 7 8 9 10 11 12 13 14 15 16 17 18 19 20 21 22 23 24 25 26 27 28 29 30 31 32 33 34 35 36 37 38 39 40 41 42 43 44 45 46 47 48 49 50
000
ASUS43 KBIS 240810
RWRND

NORTH DAKOTA REGIONAL WEATHER ROUNDUP
NATIONAL WEATHER SERVICE BISMARCK ND
200 AM CST TUE JAN 24 2017

NOTE: "FAIR" INDICATES FEW OR NO CLOUDS BELOW 12,000 FEET WITH NO
SIGNIFICANT WEATHER AND/OR OBSTRUCTIONS TO VISIBILITY.


NDZ001>003-009>011-017-240900-
NORTHWEST NORTH DAKOTA

CITY           SKY/WX    TMP DP  RH WIND       PRES   REMARKS
WILLISTON      CLOUDY    22  19  89 W6        29.85R WCI  14
MINOT          CLOUDY    24  18  77 W8        29.81S WCI  15
$$

NDZ018>021-031>035-040>046-240900-
SOUTHWEST NORTH DAKOTA

CITY           SKY/WX    TMP DP  RH WIND       PRES   REMARKS
BISMARCK       CLOUDY    28  24  85 N13       29.84S WCI  17
DICKINSON      CLOUDY    20  18  92 N8        29.78S WCI  10
GARRISON         N/A     21  17  84 NW10      29.82S WCI  10
HETTINGER ARPT CLOUDY    21  19  92 N6        29.80R FOG     WCI  13
$$

NDZ004>008-012>016-024-026-027-054-240900-
NORTHEAST NORTH DAKOTA

CITY           SKY/WX    TMP DP  RH WIND       PRES   REMARKS
GRAND FORKS    CLOUDY    26  19  74 W10       29.85S WCI  16
GRND FRKS AFB  CLOUDY    25  19  80 W8        29.85S WCI  16
DEVILS LAKE    CLOUDY    22  19  89 W14       29.81S WCI   9
$$

NDZ022-023-025-028>030-036>039-047>053-240900-
SOUTHEAST NORTH DAKOTA

CITY           SKY/WX    TMP DP  RH WIND       PRES   REMARKS
FARGO          CLOUDY    32  26  78 SW3       29.85F
JAMESTOWN      CLOUDY    28  24  85 W5        29.82R
$$





USA.gov is the U.S. government's official web portal to all federal, state and local government web resources and services.